GW6037 Weather Reports


Display with metric or nautical units.
time (UTC)temp
F
wind
direction
speed
MPH
gust
MPH
rain 1hr
in
rain 24hr
in
rain mn
in
humidity
%
barometer
mb
20260503054549 72 111 0.0 2.0 0.00 0.87 0.00 93 1018.7
20260503053051 73 0 0.0 2.0 0.00 0.87 0.00 94 1018.7
20260503051551 73 113 2.0 4.0 0.00 0.87 0.00 94 1018.7
20260503050055 74 105 1.0 3.0 0.00 0.87 0.00 94 1018.9
20260503044553 74 115 1.0 3.0 0.00 0.87 0.00 94 1018.9
20260503043051 74 94 1.0 2.0 0.00 0.87 0.00 94 1019.1
20260503041604 75 0 0.0 0.0 0.00 0.87 0.00 95 1019.1
20260503040058 75 0 0.0 0.0 0.00 0.87 0.00 94 1019.2
20260503034605 75 0 0.0 0.0 0.00 0.87 0.87 95 1019.4
20260503033057 75 0 0.0 0.0 0.00 0.87 0.87 94 1019.4
20260503031555 75 0 0.0 0.0 0.00 0.87 0.87 94 1019.3
20260503030056 75 0 0.0 3.0 0.00 0.87 0.87 95 1019.2
20260503024555 75 150 2.0 4.0 0.00 0.87 0.87 94 1019.2
20260503023051 75 113 1.0 3.0 0.00 0.87 0.87 94 1019.1
20260503021552 75 0 0.0 0.0 0.00 0.87 0.87 94 1018.9
20260503020048 75 0 0.0 0.0 0.00 0.87 0.87 94 1018.9
20260503014552 75 0 0.0 2.0 0.00 0.87 0.87 94 1018.8
20260503013048 76 114 1.0 3.0 0.00 0.87 0.87 94 1018.6
20260503011552 76 0 0.0 2.0 0.00 0.87 0.87 95 1018.5
20260503010050 76 0 0.0 2.0 0.00 0.87 0.87 94 1018.2
20260503004549 76 0 0.0 2.0 0.00 0.87 0.87 94 1017.9
20260503003048 76 0 0.0 2.0 0.00 0.87 0.87 94 1017.8
20260503001551 76 0 0.0 2.0 0.00 0.87 0.87 94 1017.6
20260503000054 76 191 0.0 2.0 0.01 0.87 0.87 94 1017.6
20260502234551 76 188 0.0 2.0 0.02 0.87 0.87 94 1017.4
20260502233054 76 194 0.0 2.0 0.06 0.87 0.87 94 1017.3
20260502231602 76 190 1.0 3.0 0.50 0.87 0.87 94 1017.1
20260502230050 76 238 1.0 3.0 0.70 0.86 0.86 94 1016.9
20260502224551 76 178 3.0 7.0 0.69 0.85 0.85 93 1016.8
20260502223054 76 272 7.0 11.0 0.65 0.81 0.81 93 1016.7
20260502221556 77 251 2.0 6.0 0.20 0.36 0.36 90 1016.9
20260502214555 80 219 1.0 2.0 0.00 0.16 0.16 90 1016.3
20260502213055 80 21 3.0 5.0 0.00 0.16 0.16 89 1016.1
20260502211553 80 236 1.0 8.0 0.16 0.16 0.16 91 1016.0
20260502210105 80 304 4.0 14.0 0.15 0.15 0.15 89 1016.0
20260502204552 83 11 8.0 14.0 0.00 0.00 0.00 80 1015.9
20260502203056 83 29 6.0 17.0 0.00 0.00 0.00 79 1015.9
20260502201603 84 360 6.0 14.0 0.00 0.00 0.00 78 1015.9
20260502194559 85 348 7.0 13.0 0.00 0.00 0.00 75 1016.0
20260502193100 86 9 8.0 13.0 0.00 0.00 0.00 72 1016.2
20260502191558 87 19 8.0 11.0 0.00 0.00 0.00 68 1016.2
20260502184559 86 323 9.0 13.0 0.00 0.00 0.00 68 1016.3
20260502183051 87 261 8.0 13.0 0.00 0.00 0.00 66 1016.3
20260502181552 87 292 6.0 11.0 0.00 0.00 0.00 66 1016.4
20260502180120 87 286 7.0 12.0 0.00 0.00 0.00 67 1016.6
20260502163048 88 305 8.0 13.0 0.00 0.00 0.00 58 1017.4
20260502161601 91 242 1.0 7.0 0.00 0.00 0.00 55 1017.6
20260502151606 88 174 2.0 10.0 0.00 0.00 0.00 61 1018.3
20260502130104 82 0 1.0 4.0 0.00 0.00 0.00 70 1018.5
20260502123055 80 98 1.0 4.0 0.00 0.00 0.00 78 1018.2
20260502121602 79 37 1.0 3.0 0.00 0.00 0.00 82 1017.9
20260502114549 76 119 1.0 3.0 0.00 0.00 0.00 85 1017.8
20260502113049 75 144 2.0 4.0 0.00 0.00 0.00 87 1017.6
20260502111557 74 103 1.0 3.0 0.00 0.00 0.00 89 1017.5
20260502110053 73 55 2.0 3.0 0.00 0.00 0.00 91 1017.3
20260502104554 72 134 1.0 3.0 0.00 0.00 0.00 93 1017.1
20260502103100 72 103 2.0 3.0 0.00 0.00 0.00 94 1017.0
20260502101609 72 111 2.0 4.0 0.00 0.00 0.00 93 1016.8
20260502100108 72 132 1.0 2.0 0.00 0.00 0.00 93 1016.8
20260502080105 73 80 1.0 3.0 0.00 0.00 0.00 93 1016.1
20260502070053 74 0 0.0 0.0 0.00 0.00 0.00 93 1015.8
20260502064551 74 0 0.0 2.0 0.00 0.00 0.00 93 1015.8